Location: Albany
(35.0170°S, 117.8920°E)
Time: 23:24:25
(UTC+08:00)

Explorer 11/Cluster Stage 4 - All Passes

Search period start: 23 January 2021 00:00
Search period end: 02 February 2021 00:00
Orbit: 467 x 1258 km, 28.8° (Epoch: 22 January)

Date Brightness Start Highest point End Pass type
(mag) Time Alt. Az. Time Alt. Az. Time Alt. Az.
23 Jan - 07:13:00 10° N 07:14:42 11° NNE 07:16:20 10° NE daylight
23 Jan - 08:58:28 10° NW 09:02:54 25° NNE 09:06:40 10° ENE daylight
23 Jan - 10:46:39 10° WNW 10:50:58 35° N 10:54:38 10° ENE daylight
23 Jan - 12:35:23 10° WNW 12:38:49 26° NNW 12:41:58 10° NE daylight
24 Jan - 07:00:29 10° N 07:03:44 14° NNE 07:06:42 10° NE daylight
24 Jan - 08:47:05 10° NW 08:52:00 29° NNE 08:56:06 10° ENE daylight
24 Jan - 10:35:33 10° WNW 10:40:07 37° N 10:43:56 10° ENE daylight
24 Jan - 12:24:30 10° WNW 12:27:58 25° NNW 12:31:06 10° NE daylight
25 Jan - 06:48:28 10° NNW 06:52:45 18° NNE 06:56:32 10° ENE daylight
25 Jan - 08:35:44 10° NW 08:41:04 33° N 08:45:28 10° ENE daylight
25 Jan - 10:24:26 10° WNW 10:29:15 39° N 10:33:13 10° ENE daylight
25 Jan - 12:13:36 10° WNW 12:17:06 24° NNW 12:20:13 10° NE daylight
26 Jan - 06:36:41 10° NNW 06:41:44 21° NNE 06:46:09 10° ENE daylight
26 Jan - 08:24:23 10° NW 08:30:08 37° N 08:34:49 10° ENE daylight
26 Jan - 10:13:19 10° WNW 10:18:22 40° N 10:22:30 10° ENE daylight
26 Jan - 12:02:41 10° WNW 12:06:13 22° NNW 12:09:20 10° NNE daylight
27 Jan - 06:25:00 10° NNW 06:30:42 25° NNE 06:35:38 10° ENE daylight
27 Jan - 08:13:04 10° WNW 08:19:11 40° N 08:24:08 10° ENE daylight
27 Jan - 10:02:10 10° WNW 10:07:28 40° N 10:11:46 10° ENE daylight
27 Jan - 11:51:46 10° WNW 11:55:18 21° NNW 11:58:24 10° NNE daylight
28 Jan - 04:28:15 10° N 04:31:08 12° NNE 04:33:54 10° NE visible
28 Jan - 06:13:25 10° NW 06:19:39 29° NNE 06:25:01 10° ENE daylight
28 Jan - 08:01:46 10° WNW 08:08:12 44° N 08:13:25 10° ENE daylight
28 Jan - 09:51:01 10° WNW 09:56:32 40° N 10:01:00 10° ENE daylight
28 Jan - 11:40:51 10° WNW 11:44:21 19° NNW 11:47:26 10° NNE daylight
29 Jan - 04:15:49 10° N 04:20:00 15° NNE 04:23:58 10° ENE visible
29 Jan - 06:01:53 10° NW 06:08:34 32° NNE 06:14:20 10° ENE daylight
29 Jan - 07:50:28 10° WNW 07:57:12 47° N 08:02:40 10° ENE daylight
29 Jan - 09:39:51 10° WNW 09:45:36 40° N 09:50:13 10° ENE daylight
29 Jan - 11:29:56 10° WNW 11:33:24 18° NNW 11:36:26 10° NNE daylight
30 Jan - 04:03:47 10° NNW 04:08:51 18° NNE 04:13:38 10° ENE visible
30 Jan - 05:50:25 10° NW 05:57:28 36° NNE 06:03:35 10° E daylight
30 Jan - 07:39:10 10° WNW 07:46:10 49° N 07:51:53 10° ENE daylight
30 Jan - 09:28:40 10° W 09:34:37 39° NNW 09:39:25 10° NE daylight
30 Jan - 11:19:03 10° WNW 11:22:24 17° NNW 11:25:21 10° NNE daylight
31 Jan - 03:51:56 10° NNW 03:57:40 21° NNE 04:03:07 10° ENE visible
31 Jan - 05:38:59 10° NW 05:46:21 40° NNE 05:52:47 10° E daylight
31 Jan - 07:27:54 10° WNW 07:35:08 51° N 07:41:05 10° ENE daylight
31 Jan - 09:17:29 10° W 09:23:37 38° NNW 09:28:35 10° NE daylight
31 Jan - 11:08:12 10° WNW 11:11:22 15° NNW 11:14:13 10° N daylight
01 Feb - 03:40:15 10° NNW 03:46:28 24° NNE 03:52:26 10° ENE visible
01 Feb - 05:27:37 10° NW 05:35:12 43° NNE 05:41:56 10° E daylight
01 Feb - 07:16:38 10° WNW 07:24:04 52° N 07:30:15 10° ENE daylight
01 Feb - 09:06:19 10° W 09:12:35 37° NNW 09:17:42 10° NE daylight
01 Feb - 10:57:23 10° WNW 11:00:20 14° NNW 11:02:59 10° N daylight
